Skip Page Navigation
NASA JPL Caltech
NASA Logo - Jet Propulsion Laboratory + View the NASA Portal
+ Center for Near-Earth Object Studies
JPL Home Earth Solar System Stars & Galaxies Technology
JPL Solar System Dynamics
BODIES ORBITS EPHEMERIDES TOOLS PHYSICAL DATA DISCOVERY FAQ SITE MAP
IMPORTANT: The SSD Announcement email list is now available. Major changes are coming in the near future, including possible hostname and/or URL changes. To be notified of such changes, subscribe to this email list.

Please visit this page for more details.


JPL Small-Body Database Browser
Search: [ help ]  
66002 (1998 OL5)
Classification: Main-belt Asteroid          SPK-ID: 2066002
Ephemeris | Orbit Diagram | Orbital Elements | Mission Design | Physical Parameters | Discovery Circumstances ]

[ show orbit diagram ]
Orbital Elements at Epoch 2459000.5 (2020-May-31.0) TDB
Reference: JPL 22 (heliocentric ecliptic J2000)
 Element Value Uncertainty (1-sigma)   Units 
e .1549564001440978 3.869e-08  
a 2.213947231005473 7.6464e-09 au
q 1.870881937979872 8.6134e-08 au
i 4.675325858561459 3.9785e-06 deg
node 161.5323119284109 4.5095e-05 deg
peri 197.216568829037 4.6568e-05 deg
M 184.5903735569468 1.0839e-05 deg
tp 2459586.773477856173
(2022-Jan-07.27347786)
3.6624e-05 TDB
period 1203.231865365967
3.29
6.2334e-06
1.707e-08
d
yr
n .299194203845744 1.55e-09 deg/d
Q 2.557012524031074 8.8312e-09 au
  Orbit Determination Parameters
   # obs. used (total)      841  
   data-arc span      7862 days (21.52 yr)  
   first obs. used      1998-07-26  
   last obs. used      2020-02-03  
   planetary ephem.      DE431  
   SB-pert. ephem.      SB431-N16  
   condition code      0  
   norm. resid. RMS      .50435  
   source      ORB  
   producer      Otto Matic  
   solution date      2020-Feb-23 14:49:25  

Additional Information
 Earth MOID = .867465 au 
 Jupiter MOID = 2.88501 au 
 T_jup = 3.635 
[ show covariance matrix ]

Ephemeris | Orbit Diagram | Orbital Elements | Mission Design | Physical Parameters | Discovery Circumstances ]

Physical Parameter Table
Parameter Symbol Value Units Sigma Reference Notes
absolute magnitude H 16.1   n/a MPO468585  

66002 (1998 OL5)          Discovered 1998-Jul-29 by ODAS at Caussols
Reference: 20030910/Numbers.arcLast Updated: 2004-04-19

Alternate Designations
 1998 OL5 = 2000 CR56 
Ephemeris | Orbit Diagram | Orbital Elements | Mission Design | Physical Parameters | Discovery Circumstances ]
ABOUT SSD CREDITS/AWARDS PRIVACY/COPYRIGHT GLOSSARY LINKS
FirstGov 2020-Feb-24 13:17 UT
(server date/time)  
NASA Home Page
Site Manager:   Ryan S. Park
Webmaster  Alan B. Chamberlin